Home   Weather   Valletta   Past weeks
Flag for Malta

Past Weather in Valletta, Malta — Yesterday and Last 2 Weeks

Now
66 °F

Clear.


Feels Like: 66 °F
Forecast: 70 / 62 °F
Wind: 23 mph from Southeast

Location: Luqa

Current Time: May 26, 2019 at 3:26:15 am

Latest Report: May 26, 2019 at 2:45 am


Visibility: 10 mi

Pressure: 29.77 "Hg

Humidity: 73%

Dew Point: 57 °F

Location of VallettaLocation

Past Weather in Valletta — Graph

°F

Valletta Temperature Yesterday

Maximum temperature yesterday: 73 °F (at 10:15 am)
Minimum temperature yesterday: 61 °F (at 3:15 am)
Average temperature yesterday: 67 °F

High & Low Weather Summary for the Past Weeks

 TemperatureHumidityPressure
High77 °F (May 22, 2:15 pm)100% (May 12, 2:15 am)30.15 "Hg (May 12, 2:15 am)
Low52 °F (May 17, 5:45 am)27% (May 22, 3:15 pm)29.65 "Hg (May 18, 4:45 pm)
Average64 °F70%29.91 "Hg
* Reported May 11 2:45 am — May 26 2:15 am, Valletta. Weather by CustomWeather, © 2019

Note: Actual official high and low records may vary slightly from our data, if they occured in-between our weather recording intervals... More about our weather records

Advertising

Valletta Weather History for the Previous 24 Hours

Scroll right to see more
 ConditionsComfort  
Time TempWeatherWind HumidityBarometerVisibility
2:15 am
Sun, May 26
66 °FPassing clouds.24 mph73%29.80 "HgN/A
1:45 am66 °FClear.20 mph73%29.80 "Hg10 mi
1:15 am66 °FClear.21 mph73%29.80 "Hg10 mi
12:45 am66 °FClear.23 mph73%29.83 "Hg10 mi
12:15 am66 °FClear.24 mph73%29.83 "Hg10 mi
11:45 pm
Sat, May 25
66 °FClear.23 mph73%29.86 "Hg10 mi
11:15 pm66 °FClear.22 mph78%29.86 "Hg10 mi
10:45 pm66 °FClear.22 mph78%29.86 "Hg10 mi
10:15 pm66 °FClear.17 mph78%29.89 "Hg10 mi
9:45 pm66 °FClear.20 mph78%29.89 "Hg10 mi
9:15 pm66 °FClear.22 mph78%29.86 "Hg10 mi
8:45 pm66 °FClear.24 mph78%29.83 "Hg10 mi
8:15 pm64 °FPassing clouds.24 mph88%29.86 "HgN/A
7:45 pm66 °FLight rain. Passing clouds.23 mph83%29.89 "HgN/A
7:15 pm66 °FSunny.21 mph78%29.89 "Hg10 mi
6:45 pm68 °FSunny.20 mph73%29.89 "Hg10 mi
6:15 pm70 °FSunny.21 mph69%29.89 "Hg10 mi
5:45 pm68 °FSunny.22 mph73%29.86 "Hg10 mi
5:15 pm68 °FSunny.18 mph73%29.89 "Hg10 mi
4:45 pm70 °FScattered showers. Clear.17 mph69%29.92 "HgN/A
4:15 pm70 °FSunny.20 mph69%29.92 "Hg10 mi
3:45 pm70 °FSunny.17 mph69%29.92 "Hg10 mi
3:15 pm72 °FPassing clouds.13 mph61%29.92 "HgN/A
2:45 pm72 °FSunny.16 mph61%29.95 "Hg10 mi
2:15 pm73 °FSunny.14 mph53%29.98 "Hg10 mi
1:45 pm73 °FSunny.13 mph57%29.98 "Hg10 mi
1:15 pm73 °FSunny.13 mph57%29.98 "Hg10 mi
12:45 pm72 °FPassing clouds.15 mph65%29.98 "HgN/A
12:15 pm73 °FPassing clouds.14 mph57%29.98 "HgN/A
11:45 am72 °FPassing clouds.13 mph57%29.98 "HgN/A
11:15 am72 °FPassing clouds.9 mph50%29.98 "HgN/A
10:45 am73 °FSunny.9 mph44%29.98 "Hg10 mi
10:15 am73 °FSunny.5 mph44%30.01 "Hg10 mi
9:45 am70 °FSunny.6 mph57%30.01 "Hg10 mi
9:15 am68 °FSunny.7 mph64%30.01 "Hg10 mi
8:45 am68 °FPassing clouds.6 mph73%29.98 "HgN/A
8:15 am66 °FPassing clouds.6 mph88%29.98 "HgN/A
7:45 am64 °FPassing clouds.6 mph94%29.95 "HgN/A
7:15 am64 °FPassing clouds.6 mph94%29.98 "HgN/A
6:45 am64 °FPassing clouds.3 mph94%29.98 "HgN/A
6:15 am63 °FPassing clouds.5 mph100%29.95 "HgN/A
5:45 am63 °FPassing clouds.8 mph94%29.95 "HgN/A
5:15 am61 °FClear.6 mph94%29.95 "Hg10 mi
4:45 am61 °FClear.6 mph94%29.92 "Hg10 mi
4:15 am63 °FClear.6 mph94%29.92 "Hg10 mi
3:45 am63 °FClear.7 mph94%29.95 "Hg10 mi
3:15 am61 °FClear.6 mph100%29.95 "Hg10 mi
Weather by CustomWeather, © 2019

See weather overview